Location: Brachbach
(49.1847°N, 9.7240°E)
Time: 12:19:41
(UTC+00:00)

CZ-2C R/B - Pass Details

Date: 07 August 2024
Orbit: 782 x 869 km, 98.3° (Epoch: 15 September)

Event Time Altitude Azimuth Distance (km) Brightness Sun altitude
Exits shadow 23:46:29 11° 110° (ESE) 2,420 4.9 -24.6°
Maximum altitude 23:50:36 24° 60° (ENE) 1,680 4.6 -24.5°
Drops below altitude 10° 23:54:55 10° 7° (N) 2,467 6.2 -24.5°
Sets 23:57:39 0° 355° (N) 3,391 7.1 -24.4°
